contact:dominique.lefevre@mio.osupytheas.fr, maurice.libes@osupytheas.fr, didier.mallarino@osupytheas.fr
Project:EMSO http://www.emso-fr.org/EMSO-France
Depth: 2436.0 m
Title:EMSO Ligure Ouest : Data MII capteur AQUADOPP
Date,Latitude,Longitude,X_East,Y_North,Z_Up,Amplitude_X,Amplitude_Y,Amplitude_Z,Batterie,SoundSpeed,Heading,Pitch,Roll,Pressure,TIS,Speed,Direction
, degrees North, degrees East, m.s-1, m.s-1,m.s-1, 1, 1, 1, Volt, m.s-1, degree, degree, degree, dbar, degree_C, m.s-1, degree
2022-07-28T00:04:03,42.805,6.029,-0.013,0.012,-0.022,102.0,102.0,101.0,13.3,1505.2,322.5,-0.8,1.8,2470.989,13.29,0.017,312.7
2022-07-28T00:07:03,42.805,6.029,-0.011,0.026,-0.017,102.0,102.0,102.0,13.4,1505.2,321.5,-0.8,1.8,2470.976,13.29,0.028,337.1
2022-07-28T00:10:03,42.805,6.029,0.0,0.007,-0.028,102.0,103.0,101.0,13.3,1505.2,332.9,-0.8,1.8,2470.962,13.29,0.007,0.0
2022-07-28T00:13:03,42.805,6.029,-0.012,0.018,-0.056,101.0,102.0,100.0,13.3,1505.2,325.1,-0.8,1.8,2470.934,13.29,0.021,326.3
2022-07-28T00:16:03,42.805,6.029,-0.009,0.008,-0.033,103.0,101.0,101.0,13.4,1505.2,325.0,-0.8,1.9,2470.946,13.29,0.012,311.6
2022-07-28T00:19:03,42.805,6.029,-0.006,-0.002,-0.023,103.0,102.0,101.0,13.4,1505.2,323.4,-0.8,1.8,2470.923,13.29,0.006,251.6
2022-07-28T00:22:03,42.805,6.029,-0.001,0.013,-0.036,101.0,102.0,101.0,13.4,1505.2,328.3,-0.7,1.8,2470.954,13.29,0.013,355.6
2022-07-28T00:25:03,42.805,6.029,-0.02,0.005,0.0,102.0,102.0,100.0,13.4,1505.2,320.6,-0.7,1.8,2470.935,13.29,0.02,284.0
2022-07-28T00:28:03,42.805,6.029,-0.023,0.011,-0.027,103.0,101.0,101.0,13.3,1505.2,319.6,-0.8,1.8,2470.873,13.29,0.025,295.6
2022-07-28T00:31:03,42.805,6.029,0.0,0.001,0.0,102.0,103.0,99.0,13.4,1505.2,332.0,-0.8,1.8,2470.945,13.29,0.001,0.0
2022-07-28T00:34:03,42.805,6.029,0.0,0.001,-0.024,102.0,102.0,101.0,13.4,1505.2,328.6,-0.7,1.9,2470.886,13.29,0.001,0.0
2022-07-28T00:37:03,42.805,6.029,0.005,0.014,-0.015,102.0,104.0,101.0,13.3,1505.2,332.6,-0.7,1.8,2470.935,13.29,0.014,19.6
2022-07-28T00:40:03,42.805,6.029,-0.006,0.034,-0.067,104.0,100.0,100.0,13.4,1505.2,325.8,-0.8,1.8,2470.892,13.29,0.034,350.0
2022-07-28T00:43:03,42.805,6.029,-0.019,0.014,-0.016,101.0,104.0,100.0,13.4,1505.2,324.2,-0.8,1.8,2470.959,13.29,0.023,306.4
2022-07-28T00:46:03,42.805,6.029,-0.011,0.027,-0.025,101.0,102.0,101.0,13.3,1505.2,318.8,-0.8,1.8,2470.912,13.29,0.029,337.8
2022-07-28T00:49:03,42.805,6.029,-0.018,0.018,-0.003,104.0,100.0,101.0,13.4,1505.2,333.9,-0.7,1.8,2470.936,13.29,0.025,315.0
2022-07-28T00:52:03,42.805,6.029,0.022,0.014,-0.027,103.0,103.0,100.0,13.4,1505.2,328.5,-0.8,1.9,2470.876,13.29,0.026,57.5
2022-07-28T00:55:03,42.805,6.029,-0.023,0.017,-0.049,103.0,101.0,100.0,13.3,1505.2,319.7,-0.7,1.8,2470.88,13.29,0.028,306.5
2022-07-28T00:58:03,42.805,6.029,-0.013,-0.002,-0.027,102.0,103.0,100.0,13.4,1505.2,324.1,-0.8,1.8,2470.877,13.29,0.013,261.3
2022-07-28T01:04:03,42.805,6.029,-0.029,0.007,-0.044,103.0,103.0,101.0,13.4,1505.2,322.0,-0.7,1.8,2470.933,13.29,0.029,283.6
2022-07-28T01:07:03,42.805,6.029,-0.01,0.014,-0.011,102.0,103.0,100.0,13.3,1505.2,318.9,-0.7,1.8,2470.95,13.29,0.017,324.5
2022-07-28T01:10:03,42.805,6.029,-0.006,0.03,0.01,102.0,103.0,100.0,13.3,1505.2,329.6,-0.7,1.8,2470.963,13.29,0.03,348.7
2022-07-28T01:13:03,42.805,6.029,0.0,0.018,0.005,101.0,102.0,101.0,13.4,1505.2,325.6,-0.8,1.9,2470.933,13.29,0.018,0.0
2022-07-28T01:16:03,42.805,6.029,0.007,-0.009,-0.004,103.0,104.0,99.0,13.4,1505.2,325.8,-0.8,1.8,2470.923,13.29,0.011,142.1
2022-07-28T01:19:03,42.805,6.029,0.005,0.019,0.002,103.0,100.0,100.0,13.3,1505.2,325.8,-0.7,1.8,2470.885,13.29,0.019,14.7
2022-07-28T01:22:03,42.805,6.029,0.006,0.012,-0.021,102.0,102.0,101.0,13.4,1505.2,322.3,-0.8,1.8,2470.896,13.29,0.013,26.6
2022-07-28T01:25:03,42.805,6.029,-0.001,0.015,-0.009,102.0,102.0,101.0,13.4,1505.2,322.7,-0.8,1.8,2470.891,13.29,0.015,356.2
2022-07-28T01:28:03,42.805,6.029,-0.011,0.006,-0.041,101.0,102.0,100.0,13.4,1505.2,324.5,-0.7,1.8,2470.919,13.29,0.012,298.6
2022-07-28T01:31:03,42.805,6.029,-0.031,0.016,-0.02,102.0,101.0,101.0,13.4,1505.2,327.2,-0.7,1.8,2470.94,13.29,0.034,297.3
2022-07-28T01:34:03,42.805,6.029,-0.012,0.018,-0.007,102.0,102.0,101.0,13.4,1505.2,325.8,-0.7,1.8,2470.894,13.29,0.021,326.3
2022-07-28T01:37:03,42.805,6.029,-0.018,0.006,-0.043,102.0,102.0,100.0,13.4,1505.2,323.8,-0.7,1.8,2470.885,13.29,0.018,288.4
2022-07-28T01:40:03,42.805,6.029,-0.007,0.012,-0.041,102.0,102.0,101.0,13.4,1505.2,320.5,-0.7,1.8,2470.863,13.29,0.013,329.7
2022-07-28T01:43:03,42.805,6.029,0.005,0.003,0.014,104.0,103.0,100.0,13.4,1505.2,326.4,-0.7,1.8,2470.891,13.29,0.005,59.0
2022-07-28T01:46:03,42.805,6.029,-0.006,0.018,-0.009,102.0,102.0,100.0,13.4,1505.2,322.9,-0.7,1.8,2470.871,13.29,0.018,341.6
2022-07-28T01:49:03,42.805,6.029,0.011,0.02,0.01,102.0,101.0,101.0,13.3,1505.2,333.4,-0.7,1.8,2470.888,13.29,0.022,28.8
2022-07-28T01:52:03,42.805,6.029,-0.008,0.025,-0.03,104.0,100.0,101.0,13.4,1505.2,332.4,-0.8,1.8,2470.844,13.29,0.026,342.3
2022-07-28T01:55:03,42.805,6.029,0.005,0.009,-0.034,102.0,103.0,101.0,13.4,1505.2,324.0,-0.7,1.8,2470.874,13.29,0.01,29.1
2022-07-28T01:58:03,42.805,6.029,0.018,0.006,-0.025,100.0,102.0,101.0,13.4,1505.2,323.8,-0.8,1.8,2470.884,13.29,0.018,71.6
2022-07-28T02:04:03,42.805,6.029,-0.006,0.019,-0.026,102.0,103.0,101.0,13.3,1505.2,322.7,-0.8,1.8,2470.935,13.29,0.019,342.5
2022-07-28T02:07:03,42.805,6.029,-0.003,0.006,-0.018,105.0,102.0,100.0,13.3,1505.2,322.4,-0.8,1.8,2470.939,13.29,0.006,333.4
2022-07-28T02:10:03,42.805,6.029,-0.021,0.014,-0.013,103.0,100.0,101.0,13.4,1505.2,326.1,-0.7,1.8,2470.882,13.29,0.025,303.7
2022-07-28T02:13:03,42.805,6.029,0.007,0.015,-0.03,102.0,102.0,100.0,13.4,1505.2,323.8,-0.7,1.8,2470.908,13.29,0.016,25.0
2022-07-28T02:16:03,42.805,6.029,-0.019,0.012,-0.033,103.0,103.0,101.0,13.3,1505.2,328.6,-0.8,1.8,2470.9,13.29,0.022,302.3
2022-07-28T02:19:03,42.805,6.029,0.001,0.021,-0.01,102.0,101.0,101.0,13.4,1505.2,334.4,-0.8,1.8,2470.886,13.29,0.021,2.7
2022-07-28T02:22:03,42.805,6.029,-0.006,0.031,0.0,102.0,103.0,100.0,13.3,1505.2,325.3,-0.8,1.8,2470.886,13.29,0.031,349.0
2022-07-28T02:25:03,42.805,6.029,0.004,0.02,0.022,102.0,102.0,100.0,13.3,1505.2,322.1,-0.7,1.8,2470.907,13.29,0.02,11.3
2022-07-28T02:28:03,42.805,6.029,0.011,0.025,-0.004,103.0,100.0,101.0,13.4,1505.2,324.9,-0.8,1.8,2470.86,13.29,0.027,23.7
2022-07-28T02:31:03,42.805,6.029,-0.002,0.017,-0.015,102.0,103.0,100.0,13.4,1505.2,326.0,-0.8,1.8,2470.878,13.29,0.017,353.3
2022-07-28T02:34:03,42.805,6.029,0.02,0.022,0.003,100.0,102.0,101.0,13.3,1505.2,329.6,-0.8,1.8,2470.876,13.29,0.029,42.3
2022-07-28T02:37:03,42.805,6.029,-0.005,0.01,0.012,101.0,103.0,100.0,13.4,1505.2,326.0,-0.8,1.8,2470.902,13.29,0.011,333.4
2022-07-28T02:40:03,42.805,6.029,0.011,0.005,-0.008,103.0,101.0,99.0,13.4,1505.2,328.4,-0.8,1.8,2470.849,13.29,0.012,65.6
2022-07-28T02:43:03,42.805,6.029,0.004,-0.003,0.002,102.0,103.0,101.0,13.3,1505.2,321.2,-0.7,1.8,2470.901,13.29,0.005,126.9
2022-07-28T02:46:03,42.805,6.029,0.011,0.012,-0.053,101.0,102.0,99.0,13.4,1505.2,325.9,-0.7,1.8,2470.885,13.29,0.016,42.5
2022-07-28T02:49:03,42.805,6.029,0.006,0.019,0.003,101.0,101.0,100.0,13.3,1505.2,328.8,-0.8,1.8,2470.869,13.29,0.019,17.5
2022-07-28T02:52:03,42.805,6.029,-0.013,0.012,-0.033,101.0,101.0,101.0,13.3,1505.2,325.1,-0.7,1.8,2470.908,13.29,0.017,312.7
2022-07-28T02:55:03,42.805,6.029,0.0,0.002,-0.031,101.0,101.0,100.0,13.4,1505.2,330.1,-0.8,1.8,2470.894,13.29,0.002,0.0
2022-07-28T02:58:03,42.805,6.029,-0.003,0.01,-0.043,101.0,103.0,100.0,13.3,1505.2,320.7,-0.7,1.8,2470.923,13.29,0.01,343.3
2022-07-28T03:04:03,42.805,6.029,-0.003,0.012,-0.036,102.0,101.0,101.0,13.3,1505.2,326.1,-0.8,1.8,2470.949,13.29,0.012,346.0
2022-07-28T03:07:03,42.805,6.029,0.008,0.02,-0.026,101.0,101.0,100.0,13.4,1505.2,318.8,-0.7,1.8,2470.958,13.29,0.021,21.8
2022-07-28T03:10:03,42.805,6.029,-0.007,0.016,-0.037,103.0,100.0,100.0,13.4,1505.2,329.4,-0.7,1.8,2470.934,13.29,0.017,336.4
2022-07-28T03:13:03,42.805,6.029,0.008,-0.003,-0.038,102.0,101.0,101.0,13.3,1505.2,324.1,-0.8,1.8,2470.928,13.29,0.008,110.6
2022-07-28T03:16:03,42.805,6.029,-0.021,0.004,-0.014,101.0,104.0,101.0,13.4,1505.2,327.8,-0.7,1.8,2470.938,13.29,0.021,280.8
2022-07-28T03:19:03,42.805,6.029,-0.012,0.018,-0.011,103.0,100.0,102.0,13.3,1505.2,332.9,-0.7,1.8,2470.894,13.29,0.021,326.3
2022-07-28T03:22:03,42.805,6.029,-0.007,0.023,0.007,102.0,102.0,99.0,13.4,1505.2,319.3,-0.7,1.8,2470.871,13.29,0.024,343.1
2022-07-28T03:25:03,42.805,6.029,0.028,-0.012,-0.044,104.0,102.0,100.0,13.4,1505.2,329.6,-0.8,1.8,2470.926,13.29,0.03,113.2
2022-07-28T03:28:03,42.805,6.029,0.018,-0.017,-0.025,101.0,102.0,100.0,13.3,1505.2,327.9,-0.8,1.8,2470.926,13.29,0.024,133.4
2022-07-28T03:31:03,42.805,6.029,-0.011,0.021,-0.03,102.0,102.0,100.0,13.4,1505.2,334.4,-0.8,1.8,2470.947,13.29,0.023,332.4
2022-07-28T03:34:03,42.805,6.029,-0.002,0.021,-0.005,102.0,102.0,101.0,13.3,1505.2,327.8,-0.8,1.8,2470.894,13.29,0.021,354.6
2022-07-28T03:37:03,42.805,6.029,0.021,-0.002,-0.026,103.0,100.0,102.0,13.4,1505.2,329.3,-0.7,1.9,2470.852,13.29,0.021,95.4
2022-07-28T03:40:03,42.805,6.029,-0.013,0.015,-0.009,105.0,103.0,100.0,13.4,1505.2,328.9,-0.8,1.8,2470.896,13.29,0.019,319.1
2022-07-28T03:43:03,42.805,6.029,0.018,-0.006,-0.046,101.0,102.0,100.0,13.3,1505.2,320.8,-0.8,1.8,2470.897,13.29,0.018,108.4
2022-07-28T03:46:03,42.805,6.029,0.0,0.007,-0.015,103.0,102.0,101.0,13.4,1505.2,320.2,-0.7,1.8,2470.882,13.29,0.007,0.0
2022-07-28T03:49:03,42.805,6.029,-0.017,0.008,-0.031,103.0,106.0,99.0,13.3,1505.2,328.3,-0.8,1.8,2470.921,13.29,0.018,295.2
2022-07-28T03:52:03,42.805,6.029,-0.034,-0.002,-0.039,104.0,102.0,100.0,13.4,1505.2,326.1,-0.7,1.9,2470.901,13.29,0.034,266.6
2022-07-28T03:55:03,42.805,6.029,-0.001,0.027,0.008,102.0,101.0,101.0,13.4,1505.2,328.0,-0.8,1.8,2470.859,13.29,0.027,357.9
2022-07-28T03:58:03,42.805,6.029,0.004,0.021,-0.017,101.0,103.0,100.0,13.4,1505.2,321.2,-0.7,1.8,2470.904,13.29,0.021,10.8
2022-07-28T04:04:03,42.805,6.029,0.012,0.029,-0.032,101.0,102.0,101.0,13.4,1505.2,327.2,-0.8,1.8,2470.973,13.29,0.031,22.5
2022-07-28T04:07:03,42.805,6.029,0.002,0.039,-0.019,101.0,102.0,101.0,13.4,1505.2,331.2,-0.8,1.8,2470.971,13.29,0.039,2.9
2022-07-28T04:10:03,42.805,6.029,-0.003,0.006,-0.029,103.0,102.0,101.0,13.4,1505.2,327.8,-0.8,1.8,2470.939,13.29,0.006,333.4
2022-07-28T04:13:03,42.805,6.029,0.008,0.001,-0.029,100.0,101.0,102.0,13.3,1505.2,322.9,-0.8,1.8,2470.936,13.29,0.008,82.9
2022-07-28T04:16:03,42.805,6.029,0.007,0.001,-0.05,103.0,102.0,101.0,13.3,1505.2,323.9,-0.8,1.9,2470.958,13.29,0.007,81.9
2022-07-28T04:19:03,42.805,6.029,-0.004,0.003,-0.037,101.0,101.0,101.0,13.3,1505.2,325.0,-0.8,1.8,2470.899,13.29,0.005,306.9
2022-07-28T04:22:03,42.805,6.029,0.007,0.0,-0.015,102.0,101.0,100.0,13.4,1505.2,327.0,-0.8,1.8,2470.878,13.29,0.007,90.0
2022-07-28T04:25:03,42.805,6.029,0.007,0.021,-0.028,102.0,102.0,100.0,13.4,1505.2,320.3,-0.7,1.8,2470.918,13.29,0.022,18.4
2022-07-28T04:28:03,42.805,6.029,-0.018,0.003,-0.052,102.0,102.0,100.0,13.3,1505.2,330.3,-0.8,1.8,2470.898,13.29,0.018,279.5
2022-07-28T04:31:03,42.805,6.029,0.018,0.005,-0.008,102.0,101.0,100.0,13.4,1505.2,328.5,-0.7,1.8,2470.914,13.29,0.018,74.5
2022-07-28T04:34:03,42.805,6.029,0.024,0.01,0.002,102.0,101.0,101.0,13.4,1505.2,326.8,-0.7,1.8,2470.93,13.29,0.026,67.4
2022-07-28T04:37:03,42.805,6.029,-0.003,0.022,0.021,100.0,102.0,101.0,13.4,1505.2,323.8,-0.8,1.8,2470.926,13.29,0.022,352.2
2022-07-28T04:40:03,42.805,6.029,-0.004,-0.01,-0.027,105.0,100.0,100.0,13.4,1505.2,322.1,-0.8,1.8,2470.919,13.29,0.01,201.8
2022-07-28T04:43:03,42.805,6.029,0.021,-0.011,-0.044,100.0,101.0,100.0,13.3,1505.2,322.0,-0.8,1.8,2470.903,13.29,0.023,117.6
2022-07-28T04:46:03,42.805,6.029,0.004,0.017,-0.022,102.0,101.0,101.0,13.3,1505.2,322.2,-0.8,1.8,2470.93,13.3,0.017,13.2
2022-07-28T04:49:03,42.805,6.029,-0.001,0.003,-0.05,102.0,102.0,100.0,13.4,1505.2,325.8,-0.7,1.8,2470.949,13.3,0.003,341.6
2022-07-28T04:52:03,42.805,6.029,-0.007,0.017,-0.037,99.0,103.0,100.0,13.4,1505.2,328.5,-0.8,1.8,2470.919,13.3,0.018,337.6
2022-07-28T04:55:03,42.805,6.029,-0.018,0.007,-0.017,102.0,102.0,100.0,13.4,1505.2,323.7,-0.8,1.8,2470.953,13.3,0.019,291.2
2022-07-28T04:58:03,42.805,6.029,0.005,-0.001,-0.008,103.0,102.0,99.0,13.4,1505.2,329.8,-0.8,1.8,2470.923,13.3,0.005,101.3
2022-07-28T05:04:03,42.805,6.029,0.0,0.006,-0.028,102.0,101.0,100.0,13.3,1505.2,332.1,-0.8,1.8,2470.974,13.29,0.006,0.0
2022-07-28T05:07:03,42.805,6.029,0.003,0.013,-0.007,102.0,103.0,100.0,13.3,1505.2,323.1,-0.7,1.8,2471.008,13.3,0.013,13.0
2022-07-28T05:10:03,42.805,6.029,-0.002,0.018,-0.005,103.0,106.0,101.0,13.3,1505.2,329.1,-0.7,1.8,2470.972,13.3,0.018,353.7
2022-07-28T05:13:03,42.805,6.029,0.005,0.016,-0.015,103.0,101.0,101.0,13.4,1505.2,332.1,-0.7,1.9,2470.96,13.3,0.016,17.4
2022-07-28T05:16:03,42.805,6.029,0.017,0.014,-0.028,100.0,103.0,101.0,13.4,1505.2,330.0,-0.8,1.8,2470.988,13.3,0.022,50.5
2022-07-28T05:19:03,42.805,6.029,-0.001,0.0,-0.041,102.0,101.0,100.0,13.4,1505.2,322.0,-0.8,1.8,2470.979,13.3,0.001,270.0
2022-07-28T05:22:03,42.805,6.029,0.012,-0.002,-0.001,102.0,102.0,101.0,13.4,1505.2,323.1,-0.8,1.8,2470.953,13.3,0.012,99.5
2022-07-28T05:25:03,42.805,6.029,0.004,0.0,-0.027,102.0,102.0,100.0,13.3,1505.2,325.8,-0.8,1.8,2470.994,13.3,0.004,90.0
2022-07-28T05:28:03,42.805,6.029,-0.004,0.001,-0.034,101.0,105.0,101.0,13.3,1505.2,318.6,-0.7,1.8,2470.97,13.3,0.004,284.0
2022-07-28T05:31:03,42.805,6.029,0.0,0.026,-0.017,101.0,104.0,100.0,13.4,1505.2,322.1,-0.8,1.8,2470.971,13.3,0.026,0.0
2022-07-28T05:34:03,42.805,6.029,-0.011,-0.005,-0.021,102.0,102.0,101.0,13.4,1505.2,332.6,-0.8,1.8,2470.936,13.3,0.012,245.6
2022-07-28T05:37:03,42.805,6.029,0.014,0.007,-0.058,102.0,103.0,100.0,13.4,1505.2,329.7,-0.8,1.8,2470.953,13.3,0.015,63.4
2022-07-28T05:40:03,42.805,6.029,-0.014,0.012,-0.023,102.0,101.0,100.0,13.3,1505.2,321.3,-0.7,1.8,2470.958,13.3,0.018,310.6
2022-07-28T05:43:03,42.805,6.029,0.002,0.0,-0.029,100.0,102.0,101.0,13.4,1505.2,322.3,-0.7,1.9,2470.978,13.3,0.002,90.0
2022-07-28T05:46:03,42.805,6.029,0.017,0.018,-0.038,101.0,102.0,101.0,13.4,1505.2,328.4,-0.7,1.8,2470.973,13.3,0.024,43.4
2022-07-28T05:49:03,42.805,6.029,0.012,-0.005,-0.03,102.0,102.0,100.0,13.3,1505.2,325.8,-0.8,1.8,2471.007,13.3,0.013,112.6
2022-07-28T05:52:03,42.805,6.029,0.02,-0.004,0.0,102.0,102.0,102.0,13.3,1505.2,323.6,-0.7,1.8,2470.954,13.3,0.02,101.3
2022-07-28T05:55:03,42.805,6.029,0.002,0.021,-0.015,102.0,102.0,100.0,13.3,1505.2,332.9,-0.7,1.8,2470.969,13.3,0.021,5.4
2022-07-28T05:58:03,42.805,6.029,0.016,0.014,-0.008,102.0,102.0,100.0,13.4,1505.2,326.3,-0.8,1.8,2470.939,13.3,0.021,48.8
2022-07-28T06:04:03,42.805,6.029,0.011,0.007,-0.003,103.0,102.0,100.0,13.4,1505.2,322.9,-0.8,1.8,2471.032,13.29,0.013,57.5
2022-07-28T06:07:03,42.805,6.029,0.032,-0.021,-0.019,103.0,102.0,101.0,13.4,1505.2,330.9,-0.8,1.8,2471.036,13.29,0.038,123.3
2022-07-28T06:10:03,42.805,6.029,-0.019,0.011,-0.049,102.0,103.0,100.0,13.3,1505.2,331.8,-0.8,1.8,2471.034,13.29,0.021,300.1
2022-07-28T06:13:03,42.805,6.029,-0.011,0.013,-0.009,107.0,101.0,100.0,13.3,1505.2,328.1,-0.8,1.8,2470.999,13.29,0.017,319.8
2022-07-28T06:16:03,42.805,6.029,0.007,-0.003,-0.002,102.0,106.0,100.0,13.4,1505.2,329.3,-0.8,1.8,2471.026,13.29,0.007,113.2
2022-07-28T06:19:03,42.805,6.029,-0.009,0.009,-0.019,102.0,102.0,101.0,13.4,1505.2,322.3,-0.8,1.8,2470.953,13.29,0.012,315.0
2022-07-28T06:22:03,42.805,6.029,-0.01,0.007,-0.04,101.0,102.0,101.0,13.4,1505.2,320.7,-0.7,1.8,2470.998,13.29,0.012,305.0
2022-07-28T06:25:03,42.805,6.029,-0.012,0.004,-0.031,103.0,101.0,100.0,13.4,1505.2,332.4,-0.7,1.8,2471.03,13.29,0.012,288.4
2022-07-28T06:28:03,42.805,6.029,0.007,0.001,-0.031,102.0,102.0,101.0,13.4,1505.2,328.8,-0.8,1.8,2470.981,13.29,0.007,81.9
2022-07-28T06:31:03,42.805,6.029,0.014,0.006,-0.002,102.0,102.0,100.0,13.4,1505.2,332.4,-0.8,1.8,2470.976,13.29,0.015,66.8
2022-07-28T06:34:03,42.805,6.029,0.018,0.011,-0.002,104.0,102.0,102.0,13.3,1505.2,320.2,-0.8,1.8,2470.977,13.29,0.021,58.6
2022-07-28T06:37:03,42.805,6.029,0.002,0.008,-0.03,102.0,104.0,100.0,13.4,1505.2,318.8,-0.8,1.8,2471.015,13.29,0.008,14.0
2022-07-28T06:40:03,42.805,6.029,-0.012,-0.018,-0.015,103.0,101.0,100.0,13.3,1505.2,321.8,-0.8,1.9,2470.965,13.29,0.021,213.7
2022-07-28T06:43:03,42.805,6.029,-0.027,0.0,-0.037,101.0,102.0,101.0,13.3,1505.2,332.6,-0.8,1.8,2470.995,13.29,0.026,270.0
2022-07-28T06:46:03,42.805,6.029,0.005,-0.013,-0.026,100.0,104.0,102.0,13.4,1505.2,324.6,-0.8,1.8,2470.962,13.29,0.013,159.0
2022-07-28T06:49:03,42.805,6.029,-0.013,-0.007,-0.026,100.0,103.0,101.0,13.4,1505.2,333.4,-0.8,1.8,2470.975,13.29,0.014,241.7
2022-07-28T06:52:03,42.805,6.029,0.008,-0.026,-0.021,103.0,101.0,100.0,13.4,1505.2,321.5,-0.8,1.8,2470.992,13.29,0.027,162.9
2022-07-28T06:55:03,42.805,6.029,-0.013,0.013,-0.012,102.0,102.0,100.0,13.4,1505.2,321.0,-0.8,1.8,2470.991,13.29,0.018,315.0
2022-07-28T06:58:03,42.805,6.029,-0.01,-0.014,-0.052,102.0,102.0,101.0,13.3,1505.2,330.1,-0.8,1.8,2470.95,13.29,0.017,215.5
2022-07-28T07:04:03,42.805,6.029,-0.01,-0.003,-0.037,102.0,103.0,101.0,13.4,1505.2,332.6,-0.8,1.9,2471.023,13.28,0.01,253.3
2022-07-28T07:07:03,42.805,6.029,0.01,-0.012,-0.015,102.0,102.0,101.0,13.4,1505.2,333.4,-0.8,1.8,2471.062,13.28,0.015,140.2
2022-07-28T07:10:03,42.805,6.029,0.026,-0.012,-0.002,103.0,101.0,101.0,13.4,1505.2,323.6,-0.8,1.8,2471.033,13.28,0.028,114.8
2022-07-28T07:13:03,42.805,6.029,0.0,0.004,-0.03,102.0,102.0,101.0,13.4,1505.2,328.6,-0.8,1.8,2471.027,13.29,0.004,0.0
2022-07-28T07:16:03,42.805,6.029,0.004,-0.011,-0.037,103.0,102.0,100.0,13.3,1505.2,319.9,-0.8,1.8,2471.02,13.29,0.011,160.0
2022-07-28T07:19:03,42.805,6.029,-0.009,0.007,-0.048,101.0,102.0,101.0,13.4,1505.2,327.6,-0.7,1.8,2471.027,13.29,0.011,307.9
2022-07-28T07:22:03,42.805,6.029,0.009,-0.008,0.012,102.0,101.0,101.0,13.3,1505.2,327.1,-0.8,1.8,2471.022,13.29,0.012,131.6
2022-07-28T07:25:03,42.805,6.029,0.005,-0.005,-0.031,102.0,102.0,101.0,13.4,1505.2,332.4,-0.8,1.8,2470.993,13.29,0.007,135.0
2022-07-28T07:28:03,42.805,6.029,0.018,-0.014,-0.029,102.0,101.0,100.0,13.4,1505.2,332.4,-0.8,1.8,2470.986,13.29,0.022,127.9
2022-07-28T07:31:03,42.805,6.029,-0.003,-0.001,-0.047,102.0,102.0,100.0,13.3,1505.2,323.9,-0.8,1.8,2470.988,13.29,0.003,251.6
2022-07-28T07:34:03,42.805,6.029,0.0,-0.005,-0.012,102.0,102.0,101.0,13.4,1505.2,329.8,-0.8,1.8,2471.033,13.29,0.005,180.0
2022-07-28T07:37:03,42.805,6.029,-0.003,0.006,-0.032,102.0,102.0,101.0,13.3,1505.2,329.9,-0.7,1.8,2470.985,13.29,0.006,333.4
2022-07-28T07:40:03,42.805,6.029,-0.004,-0.009,-0.06,102.0,102.0,100.0,13.4,1505.2,324.9,-0.7,1.8,2470.991,13.29,0.009,204.0
2022-07-28T07:43:03,42.805,6.029,-0.012,0.005,-0.041,102.0,102.0,100.0,13.3,1505.2,329.3,-0.7,1.9,2470.966,13.29,0.013,292.6
2022-07-28T07:46:03,42.805,6.029,-0.012,-0.014,-0.017,101.0,103.0,101.0,13.3,1505.2,318.9,-0.8,1.9,2471.021,13.29,0.018,220.6
2022-07-28T07:49:03,42.805,6.029,0.003,-0.009,-0.008,103.0,101.0,102.0,13.4,1505.2,330.4,-0.8,1.8,2470.957,13.29,0.009,161.6
2022-07-28T07:52:03,42.805,6.029,-0.006,0.015,-0.02,102.0,102.0,100.0,13.4,1505.2,332.2,-0.7,1.8,2470.962,13.29,0.016,338.2
2022-07-28T07:55:03,42.805,6.029,-0.02,0.012,-0.004,101.0,102.0,101.0,13.4,1505.2,323.5,-0.7,1.8,2470.972,13.29,0.023,301.0
2022-07-28T07:58:03,42.805,6.029,0.005,-0.013,-0.004,101.0,102.0,99.0,13.3,1505.2,327.2,-0.8,1.8,2470.987,13.29,0.013,159.0
2022-07-28T08:04:03,42.805,6.029,-0.01,0.006,-0.05,101.0,102.0,100.0,13.4,1505.2,330.6,-0.8,1.8,2470.984,13.29,0.011,301.0
2022-07-28T08:07:03,42.805,6.029,0.011,0.004,-0.018,101.0,103.0,101.0,13.3,1505.2,333.1,-0.8,1.8,2471.03,13.29,0.011,70.0
2022-07-28T08:10:03,42.805,6.029,-0.006,-0.004,-0.021,102.0,102.0,100.0,13.4,1505.2,320.5,-0.7,1.8,2471.003,13.29,0.007,236.3
2022-07-28T08:13:03,42.805,6.029,-0.012,0.0,-0.032,102.0,102.0,100.0,13.3,1505.2,325.2,-0.8,1.9,2470.994,13.29,0.012,270.0
2022-07-28T08:16:03,42.805,6.029,0.001,0.001,-0.019,102.0,104.0,99.0,13.3,1505.2,332.6,-0.7,1.8,2470.97,13.29,0.001,45.0
2022-07-28T08:19:03,42.805,6.029,-0.014,0.006,-0.021,102.0,102.0,100.0,13.4,1505.2,325.6,-0.8,1.8,2470.978,13.29,0.015,293.2
2022-07-28T08:22:03,42.805,6.029,0.005,0.0,-0.024,101.0,101.0,101.0,13.4,1505.2,325.2,-0.8,1.8,2470.957,13.29,0.005,90.0
2022-07-28T08:25:03,42.805,6.029,0.007,-0.02,-0.02,103.0,101.0,101.0,13.4,1505.2,320.3,-0.7,1.9,2470.962,13.29,0.021,160.7
2022-07-28T08:28:03,42.805,6.029,0.017,-0.003,-0.037,102.0,103.0,101.0,13.4,1505.2,324.6,-0.7,1.8,2470.971,13.29,0.017,100.0
2022-07-28T08:31:03,42.805,6.029,0.012,0.011,-0.015,102.0,102.0,102.0,13.3,1505.2,326.1,-0.8,1.8,2470.956,13.29,0.016,47.5
2022-07-28T08:34:03,42.805,6.029,0.0,0.0,-0.031,104.0,102.0,100.0,13.4,1505.2,324.1,-0.7,1.8,2470.936,13.29,0.0,0.0
2022-07-28T08:37:03,42.805,6.029,-0.013,0.018,-0.02,102.0,102.0,100.0,13.3,1505.2,329.2,-0.8,1.8,2470.962,13.29,0.022,324.2
2022-07-28T08:40:03,42.805,6.029,0.0,-0.008,-0.029,101.0,102.0,100.0,13.3,1505.2,321.2,-0.8,1.8,2470.947,13.29,0.008,180.0
2022-07-28T08:43:03,42.805,6.029,0.001,-0.005,-0.031,101.0,102.0,100.0,13.3,1505.2,327.5,-0.8,1.8,2470.947,13.29,0.005,168.7
2022-07-28T08:46:03,42.805,6.029,-0.016,0.017,-0.004,103.0,102.0,100.0,13.4,1505.2,331.4,-0.8,1.8,2470.98,13.29,0.023,316.7
2022-07-28T08:49:03,42.805,6.029,0.004,0.011,-0.015,101.0,104.0,101.0,13.4,1505.2,322.9,-0.7,1.8,2470.981,13.29,0.011,20.0
2022-07-28T08:52:03,42.805,6.029,0.006,-0.013,-0.039,101.0,102.0,102.0,13.3,1505.2,332.4,-0.8,1.8,2470.949,13.29,0.014,155.2
2022-07-28T08:55:03,42.805,6.029,-0.023,0.006,-0.023,102.0,103.0,100.0,13.4,1505.2,324.7,-0.8,1.8,2470.948,13.29,0.023,284.6
2022-07-28T08:58:03,42.805,6.029,-0.013,-0.004,-0.043,101.0,102.0,101.0,13.4,1505.2,325.5,-0.7,1.8,2470.904,13.29,0.013,252.9
2022-07-28T09:04:03,42.805,6.029,0.004,0.006,-0.007,102.0,102.0,102.0,13.4,1505.2,321.5,-0.8,1.8,2470.979,13.29,0.007,33.7
2022-07-28T09:07:03,42.805,6.029,0.005,0.008,0.009,103.0,102.0,100.0,13.4,1505.2,325.4,-0.8,1.8,2470.971,13.29,0.009,32.0
2022-07-28T09:10:03,42.805,6.029,-0.009,-0.004,-0.034,102.0,102.0,100.0,13.4,1505.2,327.2,-0.8,1.8,2470.982,13.29,0.009,246.0
2022-07-28T09:13:03,42.805,6.029,-0.003,-0.003,-0.023,102.0,103.0,101.0,13.4,1505.2,323.3,-0.8,1.8,2470.975,13.29,0.004,225.0
2022-07-28T09:16:03,42.805,6.029,-0.01,0.009,-0.003,102.0,102.0,101.0,13.3,1505.2,331.0,-0.7,1.8,2470.956,13.29,0.013,312.0
2022-07-28T09:19:03,42.805,6.029,-0.005,0.011,-0.044,100.0,102.0,101.0,13.4,1505.2,325.8,-0.8,1.8,2470.948,13.29,0.012,335.6
2022-07-28T09:22:03,42.805,6.029,0.003,-0.005,-0.02,102.0,101.0,102.0,13.4,1505.2,331.4,-0.8,1.8,2470.937,13.29,0.005,149.0
2022-07-28T09:25:03,42.805,6.029,-0.009,0.006,-0.003,101.0,102.0,102.0,13.4,1505.2,328.4,-0.8,1.8,2470.945,13.29,0.01,303.7
2022-07-28T09:28:03,42.805,6.029,-0.005,0.006,-0.036,102.0,100.0,101.0,13.4,1505.2,329.0,-0.8,1.8,2470.917,13.29,0.007,320.2
2022-07-28T09:31:03,42.805,6.029,-0.014,0.0,-0.012,101.0,102.0,101.0,13.4,1505.2,323.9,-0.7,1.8,2470.933,13.29,0.014,270.0
2022-07-28T09:34:03,42.805,6.029,0.029,0.003,-0.022,101.0,102.0,101.0,13.4,1505.2,326.6,-0.7,1.8,2470.916,13.29,0.029,84.1
2022-07-28T09:37:03,42.805,6.029,0.0,0.0,-0.022,102.0,101.0,100.0,13.4,1505.2,327.7,-0.8,1.8,2470.905,13.29,0.0,0.0
2022-07-28T09:40:03,42.805,6.029,-0.023,-0.012,-0.021,102.0,101.0,100.0,13.3,1505.2,318.9,-0.7,1.8,2470.895,13.29,0.025,242.4
2022-07-28T09:43:03,42.805,6.029,-0.016,-0.01,-0.015,102.0,101.0,101.0,13.4,1505.2,330.2,-0.7,1.8,2470.939,13.29,0.018,238.0
2022-07-28T09:46:03,42.805,6.029,-0.024,-0.012,-0.043,102.0,102.0,100.0,13.4,1505.2,321.5,-0.8,1.8,2470.926,13.29,0.026,243.4
2022-07-28T09:49:03,42.805,6.029,0.0,0.005,-0.036,102.0,103.0,101.0,13.3,1505.2,331.0,-0.8,1.8,2470.917,13.29,0.005,0.0
2022-07-28T09:52:03,42.805,6.029,0.013,-0.013,0.003,102.0,103.0,100.0,13.3,1505.2,329.0,-0.7,1.8,2470.92,13.29,0.018,135.0
2022-07-28T09:55:03,42.805,6.029,-0.004,0.001,-0.017,101.0,101.0,101.0,13.3,1505.2,328.4,-0.7,1.8,2470.889,13.29,0.004,284.0
2022-07-28T09:58:03,42.805,6.029,0.01,-0.032,-0.071,103.0,101.0,100.0,13.4,1505.2,318.8,-0.7,1.8,2470.901,13.29,0.033,162.6